Regional Weather Roundup
Issued by NWS

Home | Current Version | Previous Version | Graphics & Text | Print | Product List | Glossary On
Versions: 1 2 3 4 5 6 7 8 9 10 11 12 13 14 15 16 17 18 19 20 21 22 23 24 25 26 27 28 29 30 31 32 33 34 35 36 37 38 39 40 41 42 43 44 45 46 47 48 49 50
000
ASUS43 KIND 222059
RWRIN

WEATHER ROUNDUP FOR INDIANA
NATIONAL WEATHER SERVICE INDIANAPOLIS IN
500 PM EDT WED OCT 22 2014

NOTE: "FAIR" INDICATES FEW OR NO CLOUDS BELOW 12,000 FEET WITH NO
SIGNIFICANT WEATHER AND/OR OBSTRUCTIONS TO VISIBILITY.

* - STATION DOES NOT REPORT WEATHER SUCH AS PRECIPITATION OR FOG.

+ - STATION NOT QUALITY CONTROLLED BY THE NATIONAL WEATHER SERVICE.
    USE DATA WITH CAUTION...ESPECIALLY DEWPOINT AND RELATIVE
    HUMIDITY OBSERVATIONS.

INZ001>003-010>013-019-020-222200-
NORTHWEST INDIANA

CITY           SKY/WX    TMP DP  RH WIND       PRES   REMARKS
GARY /AIRPORT/ SUNNY     52  37  58 NE8       30.32F
VALPARAISO     NOT AVBL

$$

LMZ046-743>745-222200-
SOUTHERN LAKE MICHIGAN

STATION/POSITION TIME  TEMP WIND        PRES
                       AIR  DIR/SP/G
                 (UTC) (F)  (DEG/KT/KT) (MB)
MICHIGAN CITY    2000   48  350/ 10/ 12   N/A

$$

INZ004-005-014>016-021>024-222200-
NORTH CENTRAL INDIANA

CITY           SKY/WX    TMP DP  RH WIND       PRES   REMARKS
GOSHEN         SUNNY     50  40  68 NE6       30.30F
SOUTH BEND     SUNNY     57  32  38 CALM      30.30F

$$

INZ006>009-017-018-025>027-222200-
NORTHEAST INDIANA

CITY           SKY/WX    TMP DP  RH WIND       PRES   REMARKS
ANGOLA *+      CLOUDY    46  37  71 E3        30.30F
FORT WAYNE     MOSUNNY   51  41  68 E7        30.30F

$$

INZ028-029-035-036-043>045-051>053-222200-
WEST CENTRAL INDIANA

CITY           SKY/WX    TMP DP  RH WIND       PRES   REMARKS
GREENCASTLE +  SUNNY     57  41  54 NE6       30.27S
LAFAYETTE      SUNNY     57  36  45 VRB5      30.27F
TERRE HAUTE    SUNNY     59  41  51 SE5       30.26F

$$

INZ030>032-037>040-046>048-054>057-064-065-222200-
CENTRAL INDIANA

CITY           SKY/WX    TMP DP  RH WIND       PRES   REMARKS
INDIANAPOLIS   SUNNY     56  39  53 NE6       30.26S
-EAGLE CREEK   SUNNY     57  40  52 E6        30.26F
KOKOMO *+      SUNNY     57  39  51 CALM      30.27F
MT COMFORT *+  SUNNY     57  30  35 CALM      30.27F
SHELBYVILLE    SUNNY     59  40  49 NE7       30.26F

$$

INZ033-034-041-042-049-050-058-059-222200-
EAST CENTRAL INDIANA

CITY           SKY/WX    TMP DP  RH WIND       PRES   REMARKS
MUNCIE         MOSUNNY   57  41  55 E6        30.26F

$$

INZ060-061-067>069-081>083-085>088-222200-
SOUTHWEST INDIANA

CITY           SKY/WX    TMP DP  RH WIND       PRES   REMARKS
EVANSVILLE     SUNNY     62  40  44 NE5       30.24F
HUNTINGBURG *+ SUNNY     61  41  48 NE5       30.25F

$$

INZ062-063-066-070>080-084-089>092-222200-
SOUTH CENTRAL AND SOUTHEAST INDIANA

CITY           SKY/WX    TMP DP  RH WIND       PRES   REMARKS
BLOOMINGTON    SUNNY     59  40  49 NE7       30.25F
SEYMOUR +      SUNNY     61  41  48 N8        30.25

$$




USA.gov is the U.S. government's official web portal to all federal, state and local government web resources and services.